Wind_Speed
25 22 32 35 31 25 37 35 30 29 30 34 30 34 25 25 34 42 45 46 40 39 41 32 32 36 36 33 30 29 27 25 23 21 19 14 13 15 14 15 12 9 4
24 26 30 28 36 43 46 39 43 40 42 45 43 38 39 39 45 49 49 47 46 44 48 47 41 38 39 35 35 33 29 28 27 29 24 18 16 16 20 18 19 17 14
31 30 31 35 31 26 44 60 57 52 58 51 50 48 50 48 54 45 47 43 47 43 37 46 50 51 45 43 38 36 36 32 33 33 31 31 28 21 25 23 18 13 11
32 28 22 16 20 44 50 48 50 52 49 53 49 50 52 55 52 53 54 54 52 42 37 34 39 50 57 52 50 47 45 44 43 40 41 40 36 33 28 27 24 21 18
51 34 35 39 42 38 47 57 47 42 50 52 60 67 75 75 69 66 59 63 56 51 51 46 52 53 51 62 60 54 52 52 53 54 49 46 43 39 39 35 28 27 29
48 47 42 49 52 64 57 59 65 67 65 70 70 73 67 72 72 80 76 75 63 66 58 59 62 68 64 53 68 71 63 59 56 55 56 53 53 47 45 42 33 30 34
54 50 50 52 60 70 79 77 77 78 77 77 76 79 79 82 85 88 87 78 71 72 77 76 70 66 71 56 59 67 79 71 66 62 59 60 55 58 54 51 46 40 39
65 66 64 61 67 72 78 88 92 91 91 89 89 90 95 89 91 88 82 76 76 79 83 81 86 84 72 67 60 65 73 84 78 72 69 65 61 60 60 59 52 49 47
70 77 78 76 73 77 83 84 85 84 91 95 100 100 92 89 91 92 88 83 84 80 80 84 81 82 86 78 69 65 71 81 86 84 79 77 70 64 64 63 60 55 51
82 81 85 86 93 91 90 94 97 103 105 102 100 104 108 105 107 110 113 111 112 107 107 99 95 91 91 82 77 73 75 76 80 86 87 85 82 76 68 66 67 59 54
86 93 93 91 96 97 103 105 104 102 111 118 113 117 115 116 113 118 121 118 118 119 116 117 114 101 89 87 85 80 78 80 77 77 83 90 91 87 80 73 69 69 63
84 93 105 109 101 99 106 110 110 117 116 115 116 110 112 112 115 119 120 123 124 122 119 120 116 110 97 90 87 86 85 81 81 80 78 84 92 93 91 84 78 70 70
73 80 88 106 107 108 106 111 110 108 104 109 109 110 117 115 120 124 129 129 123 127 132 129 116 106 99 93 92 87 86 87 85 83 81 81 84 92 95 92 87 82 76
58 63 65 66 72 81 85 86 90 99 101 100 101 101 103 107 111 116 123 127 130 128 124 113 101 91 86 84 85 89 89 87 88 87 86 85 83 83 88 96 94 89 84
62 63 64 66 70 74 76 80 84 89 90 91 97 102 102 106 112 116 120 116 113 106 99 91 83 78 75 74 75 81 85 87 85 89 90 87 86 84 83 85 93 95 90
65 66 66 67 68 69 71 76 81 84 88 92 95 97 99 100 102 102 99 96 91 87 83 77 71 69 66 67 69 71 76 82 85 87 88 90 88 86 86 84 84 89 95
59 61 63 64 66 69 72 76 79 86 92 97 96 93 91 86 87 82 78 74 72 71 67 66 63 61 59 60 62 64 69 75 82 83 85 86 88 90 89 87 85 83 84
61 62 62 63 66 71 76 80 84 86 87 86 86 83 78 74 68 65 60 56 55 58 57 54 53 54 54 54 55 58 61 67 71 77 82 85 88 89 91 90 87 86 86
57 58 62 66 71 76 80 82 82 80 77 77 75 72 66 61 58 54 50 46 44 49 51 49 46 47 48 48 49 52 53 56 62 68 76 82 85 86 87 87 89 88 89
58 63 68 73 77 82 82 80 78 76 75 72 64 57 54 51 49 47 44 43 42 42 45 46 42 42 42 43 45 46 45 49 54 59 66 74 79 78 78 79 82 86 91
64 69 73 78 80 81 81 79 76 72 63 55 50 47 45 43 44 42 40 40 39 38 41 44 41 36 38 41 43 42 44 46 48 52 57 60 60 61 64 71 78 82 85
70 74 77 78 81 81 81 76 67 54 49 45 43 41 38 37 37 37 37 39 37 36 37 40 37 34 36 38 39 40 42 43 43 43 43 43 46 47 52 61 69 76 81
72 73 77 80 79 81 75 63 49 44 40 37 35 37 39 39 38 36 35 35 32 31 32 33 32 31 33 36 37 39 41 43 41 37 35 32 33 39 44 51 61 69 76
70 75 77 80 77 69 55 44 39 35 32 34 37 38 38 36 33 31 29 27 26 26 26 27 26 26 29 33 36 39 41 41 39 37 33 31 30 32 39 47 54 61 68
70 74 74 69 60 47 42 35 29 29 31 34 35 32 31 29 28 25 22 20 20 20 21 21 22 23 26 30 35 40 42 42 41 40 39 37 35 34 35 38 44 53 61
73 70 62 50 42 37 32 25 24 28 30 31 28 25 26 24 22 19 18 16 15 15 14 15 17 19 21 24 29 35 40 42 42 42 42 41 41 41 41 43 44 46 50
Wind_Direction
270 276 282 262 295 259 280 296 285 273 272 258 265 269 276 288 299 311 311 308 284 283 277 278 276 282 281 274 269 261 265 265 268 270 256 263 275 279 283 289 279 288 290
270 270 268 265 266 235 262 272 276 252 256 250 255 264 272 283 302 309 307 298 285 292 276 279 274 268 277 263 265 261 255 255 260 264 258 259 250 266 268 271 276 266 263
279 257 254 263 239 222 255 263 262 258 253 255 255 273 286 285 294 296 303 304 289 288 283 281 274 271 267 264 254 254 260 256 252 251 243 246 253 245 256 250 263 250 265
261 262 223 171 243 221 233 245 247 244 245 255 265 276 284 284 289 298 299 301 300 297 288 293 306 277 267 264 257 256 250 248 253 254 246 243 245 251 247 247 247 255 256
246 251 222 205 233 224 229 236 249 262 257 266 273 273 277 282 288 302 301 299 300 301 299 297 306 309 288 262 258 258 254 251 249 248 249 245 241 241 247 249 243 248 256
247 244 241 235 261 252 251 255 258 264 272 275 283 284 292 293 298 303 303 301 302 298 297 292 297 302 305 288 260 257 255 252 251 252 247 245 243 241 242 241 237 242 253
242 248 252 254 256 254 252 259 261 268 275 279 284 287 288 293 295 297 299 300 297 298 297 296 293 292 297 287 278 268 256 253 252 251 249 246 244 242 239 241 241 239 245
241 252 261 262 258 257 259 258 259 269 272 271 283 288 289 296 295 297 294 292 291 292 293 291 293 294 290 285 278 271 265 253 250 249 250 248 245 243 242 241 238 240 240
249 247 257 262 265 265 266 265 270 271 271 276 283 290 293 290 292 293 294 291 291 287 287 288 289 286 288 282 277 268 261 257 251 247 247 249 247 241 242 244 240 237 240
251 258 263 264 265 266 264 269 270 274 285 286 290 291 292 293 292 293 293 291 292 292 291 289 289 287 283 276 271 266 261 255 250 247 244 245 245 244 238 239 245 241 236
260 257 263 268 269 269 270 274 277 278 279 280 279 286 287 288 289 289 290 290 291 292 291 291 289 284 276 268 264 262 257 258 251 246 244 242 242 242 242 237 237 240 240
261 259 262 265 267 267 269 274 274 276 276 278 282 284 287 288 288 288 288 290 290 289 287 287 284 282 274 267 259 256 255 254 251 248 245 241 239 239 239 239 238 237 237
263 262 264 262 261 266 270 271 277 278 279 279 282 282 283 285 285 286 286 286 287 289 288 287 282 277 273 266 259 254 250 248 249 249 246 245 240 239 237 237 237 237 236
277 273 273 272 270 268 271 274 277 278 280 281 283 283 283 284 284 287 285 285 285 286 284 284 282 277 271 264 256 250 246 245 244 245 246 244 243 240 238 236 235 235 236
279 279 280 280 279 278 279 278 277 276 278 280 279 280 281 282 283 282 282 283 283 282 281 279 278 274 269 263 256 249 244 241 241 241 242 243 242 242 240 237 235 233 233
284 284 283 283 283 283 282 283 284 283 283 284 283 283 283 283 282 283 283 282 280 278 276 273 271 268 265 262 257 251 245 241 238 238 240 241 241 241 240 239 237 235 232
285 286 286 287 287 287 288 289 290 292 294 293 291 290 288 285 283 282 280 278 278 276 274 273 269 265 262 258 255 252 247 242 238 237 237 239 240 240 239 239 238 237 234
288 288 288 289 289 290 291 292 293 293 292 292 291 290 289 287 286 284 283 281 278 277 275 273 271 265 260 256 254 250 246 242 238 236 236 238 239 239 238 238 238 236 236
287 287 287 288 289 292 293 295 295 296 295 294 293 292 292 291 290 289 287 284 281 278 275 272 267 262 259 256 252 250 246 242 238 237 238 239 239 239 239 238 236 236 237
290 291 292 294 296 297 299 302 303 303 301 298 295 294 293 292 291 291 289 285 281 276 275 273 267 261 255 254 251 247 242 239 237 238 240 242 243 242 241 238 237 235 235
295 295 296 297 299 301 305 305 305 306 302 300 298 296 295 294 294 293 289 286 283 277 271 271 269 261 252 247 248 243 236 235 235 238 244 251 252 247 241 236 234 234 234
296 298 300 301 302 305 305 308 309 307 303 301 300 300 300 301 301 299 296 293 288 282 272 269 266 257 248 244 243 238 231 229 234 243 250 252 251 246 237 231 229 229 230
299 301 301 303 306 307 310 310 309 306 305 305 308 310 310 307 305 302 299 295 292 280 275 270 262 252 244 240 236 232 226 230 236 243 249 255 246 240 235 231 229 228 228
303 304 305 306 307 309 309 309 307 307 308 310 312 312 312 311 310 309 304 299 290 280 274 267 258 245 239 237 233 232 230 234 239 244 247 248 249 241 234 230 229 230 231
307 307 308 309 310 310 310 309 309 311 314 315 315 318 319 322 322 316 312 305 295 284 276 267 258 246 233 231 229 228 232 234 238 243 246 249 246 245 244 241 237 236 235
312 311 312 311 310 310 309 308 310 314 317 322 328 330 329 332 332 332 335 330 315 299 281 264 255 244 232 229 230 231 234 238 243 246 249 250 248 247 244 243 243 244 244
Height
10913 10914 10913 10911 10910 10913 10906 10907 10909 10910 10908 10906 10908 10910 10910 10911 10911 10911 10911 10911 10912 10913 10913 10912 10916 10917 10918 10921 10922 10921 10921 10921 10922 10923 10924 10924 10926 10926 10926 10925 10925 10926 10929
10911 10908 10906 10902 10903 10911 10903 10901 10901 10898 10903 10896 10895 10896 10899 10898 10897 10899 10899 10899 10903 10902 10904 10905 10907 10909 10910 10912 10914 10914 10915 10914 10915 10915 10916 10917 10917 10919 10921 10921 10921 10922 10924
10901 10900 10896 10892 10892 10904 10894 10888 10889 10888 10891 10886 10883 10884 10886 10887 10886 10887 10890 10890 10889 10891 10892 10893 10898 10901 10904 10902 10904 10906 10907 10907 10908 10908 10908 10908 10910 10911 10915 10916 10916 10915 10916
10897 10897 10888 10886 10887 10887 10884 10881 10877 10876 10876 10874 10870 10870 10872 10873 10871 10871 10875 10875 10876 10876 10877 10879 10883 10888 10893 10896 10893 10894 10898 10898 10899 10900 10900 10899 10901 10903 10904 10905 10907 10910 10910
10877 10885 10881 10878 10874 10866 10858 10858 10861 10861 10862 10860 10858 10854 10853 10854 10854 10853 10857 10860 10861 10859 10858 10861 10867 10871 10875 10881 10885 10882 10884 10886 10886 10889 10889 10889 10889 10892 10893 10896 10897 10901 10904
10862 10865 10869 10867 10858 10857 10855 10855 10853 10849 10848 10844 10839 10837 10833 10833 10831 10831 10832 10838 10839 10843 10842 10843 10845 10848 10853 10860 10866 10868 10871 10872 10872 10874 10876 10876 10877 10879 10882 10884 10886 10890 10893
10849 10852 10853 10855 10851 10848 10845 10840 10838 10834 10830 10826 10822 10819 10816 10814 10813 10812 10812 10813 10813 10814 10819 10822 10826 10828 10834 10836 10841 10848 10852 10854 10855 10857 10860 10859 10864 10865 10869 10871 10875 10878 10882
10834 10834 10834 10834 10835 10833 10829 10827 10824 10818 10814 10811 10805 10801 10799 10792 10789 10788 10791 10790 10789 10789 10790 10790 10797 10803 10806 10813 10817 10821 10823 10830 10834 10838 10841 10843 10846 10851 10854 10859 10862 10865 10869
10817 10817 10815 10814 10813 10812 10811 10809 10806 10802 10800 10796 10789 10783 10778 10773 10767 10766 10767 10769 10770 10767 10765 10768 10767 10768 10770 10777 10790 10790 10795 10797 10805 10814 10819 10821 10827 10832 10837 10842 10847 10852 10856
10800 10800 10800 10798 10795 10793 10790 10787 10781 10775 10770 10765 10757 10750 10748 10743 10737 10737 10737 10740 10744 10742 10743 10742 10741 10744 10746 10747 10753 10757 10767 10765 10776 10786 10793 10797 10801 10808 10819 10824 10828 10835 10840
10782 10784 10784 10782 10779 10774 10769 10764 10761 10757 10754 10748 10745 10734 10728 10724 10717 10713 10706 10704 10707 10710 10709 10711 10715 10713 10719 10718 10720 10725 10729 10734 10747 10756 10762 10769 10775 10782 10794 10803 10809 10816 10824
10764 10765 10764 10762 10759 10754 10750 10745 10742 10737 10731 10725 10718 10712 10704 10693 10687 10680 10675 10669 10670 10675 10678 10678 10676 10675 10679 10684 10689 10692 10698 10703 10712 10723 10734 10740 10745 10753 10764 10779 10790 10797 10805
10754 10752 10747 10741 10736 10732 10727 10723 10717 10712 10706 10701 10694 10682 10678 10668 10658 10647 10647 10642 10638 10635 10635 10636 10638 10635 10634 10642 10649 10656 10664 10672 10678 10691 10704 10711 10717 10724 10738 10753 10764 10774 10785
10731 10731 10727 10719 10716 10715 10709 10702 10694 10685 10679 10670 10662 10656 10648 10639 10629 10619 10617 10612 10606 10603 10600 10596 10594 10591 10591 10596 10605 10615 10629 10639 10653 10662 10672 10681 10689 10699 10710 10723 10737 10749 10761
10715 10710 10703 10697 10693 10689 10683 10677 10672 10664 10657 10650 10640 10635 10627 10618 10607 10599 10589 10582 10574 10568 10564 10562 10561 10559 10559 10559 10568 10577 10590 10606 10623 10633 10642 10651 10662 10673 10685 10695 10708 10723 10736
10692 10687 10683 10678 10673 10668 10663 10655 10645 10640 10629 10620 10612 10605 10597 10589 10579 10568 10556 10546 10541 10537 10537 10535 10534 10533 10532 10534 10538 10546 10557 10574 10592 10605 10615 10624 10635 10646 10657 10668 10681 10694 10709
10671 10666 10661 10656 10651 10644 10637 10630 10623 10608 10593 10580 10573 10567 10562 10556 10545 10538 10530 10525 10516 10509 10511 10508 10509 10509 10510 10512 10515 10521 10532 10545 10562 10580 10591 10598 10607 10618 10630 10642 10655 10668 10680
10654 10649 10643 10638 10631 10624 10616 10608 10598 10588 10577 10562 10546 10538 10533 10525 10517 10511 10507 10501 10494 10485 10485 10486 10488 10488 10491 10494 10497 10502 10510 10522 10538 10552 10563 10570 10578 10589 10603 10617 10628 10640 10651
10639 10634 10628 10621 10613 10604 10594 10584 10572 10561 10548 10536 10526 10514 10508 10500 10494 10488 10484 10480 10475 10468 10465 10467 10468 10471 10474 10477 10482 10486 10495 10504 10515 10527 10536 10545 10553 10565 10577 10590 10602 10614 10625
10621 10614 10606 10597 10588 10577 10566 10556 10544 10534 10521 10509 10500 10493 10486 10480 10475 10470 10465 10461 10457 10454 10450 10450 10453 10455 10457 10461 10466 10473 10481 10488 10497 10507 10515 10521 10529 10542 10553 10564 10575 10588 10600
10600 10591 10583 10574 10563 10553 10543 10531 10520 10509 10497 10487 10479 10473 10469 10465 10458 10454 10448 10444 10441 10439 10436 10434 10437 10439 10442 10446 10453 10461 10469 10475 10484 10492 10499 10504 10509 10516 10525 10536 10549 10563 10574
10579 10570 10560 10550 10541 10530 10518 10506 10496 10486 10477 10471 10464 10459 10454 10450 10444 10439 10434 10429 10426 10424 10422 10420 10422 10425 10428 10433 10441 10449 10457 10464 10472 10479 10485 10489 10491 10495 10504 10513 10525 10539 10551
10559 10549 10539 10528 10518 10506 10495 10486 10479 10472 10465 10459 10453 10446 10441 10436 10431 10426 10421 10417 10413 10410 10408 10407 10409 10413 10418 10423 10430 10438 10446 10453 10460 10468 10473 10476 10480 10484 10490 10498 10508 10519 10530
10541 10530 10519 10508 10496 10487 10479 10473 10467 10461 10455 10449 10443 10437 10432 10426 10420 10415 10410 10406 10402 10399 10397 10396 10399 10403 10409 10414 10420 10428 10436 10444 10452 10458 10464 10468 10472 10475 10481 10487 10495 10504 10514
10523 10511 10498 10488 10479 10473 10467 10462 10457 10451 10447 10441 10436 10430 10423 10417 10412 10408 10403 10398 10394 10391 10390 10390 10392 10396 10400 10405 10411 10419 10427 10435 10442 10448 10454 10459 10465 10470 10474 10479 10485 10492 10498
10505 10493 10481 10473 10468 10462 10458 10453 10449 10446 10441 10436 10430 10424 10419 10415 10409 10404 10398 10393 10389 10386 10385 10385 10387 10389 10393 10398 10405 10412 10419 10426 10433 10439 10444 10449 10454 10458 10464 10469 10474 10479 10484